Location: U-46 Planetarium
(42.0300°N, 88.2740°W)
Time: 17:43:28
(UTC-05:00)

RESURS DK-1 - Pass Details

Date: 16 December 2017
Orbit: 555 x 565 km, 69.9° (Epoch: 23 April)

Event Time Altitude Azimuth Distance (km) Brightness Sun altitude
Rises 18:39:19 0° 198° (SSW) 2,724 6.2 -24.4°
Reaches altitude 10° 18:41:31 10° 195° (SSW) 1,833 5.3 -24.8°
Enters shadow 18:43:46 31° 187° (S) 983 3.7 -25.2°
